Upington, South Africa

9:59 AM SAST on May 28, 2017 (GMT +0200)
Upington

Weather History for FAUP - November, 2013

Change the Weather History Date:

Monday, November 4, 2013

  Actual Average Record
Temperature  
Mean Temperature 78 °F -  
Max Temperature 100 °F 89 °F 104 °F (1997)
Min Temperature 57 °F 60 °F 46 °F (2006)
Cooling Degree Days 14    
Growing Degree Days 28 (Base 50)    
Moisture  
Dew Point 21 °F    
Average Humidity 12    
Maximum Humidity 31    
Minimum Humidity 4    
Precipitation  
Precipitation 0.00 in 0.00 in - ()
Sea Level Pressure  
Sea Level Pressure 30.02 in    
Wind  
Wind Speed 4 mph ()    
Max Wind Speed 13 mph    
Max Gust Speed 22 mph    
Averages and records for this station are not official NWS values.
T = Trace of Precipitation, MM = Missing Value Source: Averaged Metar Reports

Daily Weather History Graph

Daily Weather History Graph

Search for Another Location

Airport or City:

Trip Planner

Search our weather history database for the weather conditions in past years. The results will help you decide how hot, cold, wet, or windy it might be!

Date:

Astronomy

Nov. 04, 2013 Rise Set
Actual Time 5:40 AM SAST 6:57 PM SAST
Civil Twilight 5:15 AM SAST 7:22 PM SAST
Nautical Twilight 4:45 AM SAST 7:51 PM SAST
Astronomical Twilight 4:14 AM SAST 8:22 PM SAST
Moon 6:16 AM SAST (11/4) 8:05 PM SAST (11/4)
Length of Visible Light 14h 06m
Length of Day
13h 16m
New Moon, 1% of the Moon is Illuminated
Nov 4
New Moon
Nov 10
First Quarter
Nov 17
Full
Nov 25
Last Quarter
Dec 3
New

Hourly Weather History & Observations

Time (SAST) Temp. Dew Point Humidity Pressure Visibility Wind Dir Wind Speed Gust Speed Precip Events Conditions
12:00 AM 69.8 °F 23.0 °F 17% 30.06 in - Calm Calm - N/A   Unknown
1:00 AM 64.4 °F 23.0 °F 21% 30.04 in - NE 4.6 mph - N/A   Unknown
2:00 AM 66 °F 22 °F 9%  in 25 mi East 2.3 mph - -  
2:00 AM 66.2 °F 23.0 °F 19% 30.04 in - East 1.2 mph - N/A   Clear
3:00 AM 64.4 °F 21.2 °F 19% 30.01 in - North 5.8 mph - N/A   Clear
4:00 AM 59.0 °F 21.2 °F 23% 30.04 in - Calm Calm - N/A   Unknown
5:00 AM 61 °F 27 °F 17%  in 25 mi East 2.3 mph - -  
5:00 AM 60.8 °F 28.4 °F 29% 30.04 in - East 2.3 mph - N/A   Clear
6:00 AM 59.0 °F 28.4 °F 31% 30.06 in - Calm Calm - N/A   Clear
6:21 AM 64.4 °F 24.8 °F 22% 30.06 in - Calm Calm - N/A   Clear
7:00 AM 68.0 °F 19.4 °F 16% 30.06 in - East 1.2 mph - N/A   Clear
7:24 AM 73.4 °F 19.4 °F 13% 30.06 in - East 1.2 mph - N/A   Clear
8:00 AM 78 °F 19 °F 5%  in 25 mi East 2.3 mph - -  
8:00 AM 77.0 °F 19.4 °F 12% 30.09 in - East 1.2 mph - N/A   Clear
8:17 AM 80.6 °F 21.2 °F 11% 30.06 in - ENE 2.3 mph - N/A   Clear
8:40 AM 86.0 °F 23.0 °F 10% 30.06 in - East 3.5 mph - N/A   Clear
9:00 AM 87.8 °F 21.2 °F 9% 30.06 in - ENE 3.5 mph - N/A   Clear
10:00 AM 91.4 °F 21.2 °F 8% 30.06 in - NNE 12.7 mph - N/A   Clear
11:00 AM 93 °F 21 °F 4%  in 25 mi North 12.7 mph - -  
11:00 AM 93.2 °F 21.2 °F 7% 30.06 in - North 12.7 mph - N/A   Clear
12:00 PM 93.2 °F 19.4 °F 7% 30.04 in - NNW 6.9 mph - N/A   Clear
1:00 PM 96.8 °F 21.2 °F 7% 30.04 in - WNW 8.1 mph - N/A   Clear
2:00 PM 98 °F 21 °F 4%  in 25 mi NW 10.4 mph - -  
2:00 PM 96.8 °F 21.2 °F 7% 30.01 in - NW 9.2 mph 21.9 mph N/A   Clear
3:00 PM 96.8 °F 21.2 °F 7% 29.98 in - WNW 11.5 mph - N/A   Clear
4:00 PM 98.6 °F 23.0 °F 7% 29.95 in - NW 6.9 mph - N/A   Clear
5:00 PM 97 °F 16 °F 4%  in 25 mi West 9.2 mph - -  
5:00 PM 96.8 °F 17.6 °F 6% 29.95 in - West 8.1 mph - N/A   Clear
6:00 PM 95.0 °F 19.4 °F 6% 29.95 in - NW 8.1 mph - N/A   Clear
7:00 PM 91.4 °F 21.2 °F 8% 29.95 in - NW 5.8 mph - N/A   Clear
8:00 PM 83 °F 19 °F 4%  in 25 mi NW 9.2 mph - -   Clear
8:00 PM 82.4 °F 19.4 °F 10% 29.95 in - NW 8.1 mph - N/A   Clear
9:00 PM 80.6 °F 19.4 °F 10% 29.98 in - North 8.1 mph - N/A   Unknown
10:00 PM 77.0 °F 19.4 °F 12% 29.98 in - North 6.9 mph - N/A   Unknown
11:00 PM 76 °F 18 °F 5%  in - North 8.1 mph - -  
11:00 PM 75.2 °F 19.4 °F 12% 29.98 in - North 8.1 mph - N/A   Unknown